Location: Zagreb
(45.8000°N, 16.0000°E)
Time: 12:45:26
(UTC+02:00)

Envisat - Pass Details

Date: 25 January 2022
Orbit: 764 x 765 km, 98.2° (Epoch: 22 May)

Event Time Altitude Azimuth Distance (km) Brightness Sun altitude
Rises 04:14:28 0° 20° (NNE) 3,240 6.6 -33.2°
Reaches altitude 10° 04:16:57 10° 29° (NNE) 2,310 5.8 -32.7°
Maximum altitude 04:21:40 38° 97° (E) 1,161 4.3 -31.9°
Drops below altitude 10° 04:26:22 10° 165° (SSE) 2,295 5.6 -31.1°
Sets 04:28:49 0° 173° (S) 3,216 6.3 -30.7°
